Regional Weather Roundup
Issued by NWS

Home | Current Version | Previous Version | Text Only | Print | Product List | Glossary On
Versions: 1 2 3 4 5 6 7 8 9 10 11 12 13 14 15 16 17 18 19 20 21 22 23 24 25 26 27 28 29 30 31 32 33 34 35 36 37 38 39 40 41 42 43 44 45 46 47 48 49 50
000
ASUS44 KBMX 042110
RWRAL

ALABAMA REGIONAL WEATHER ROUNDUP
NATIONAL WEATHER SERVICE BIRMINGHAM AL
400 PM CDT FRI SEP 04 2015

NOTE: "FAIR" INDICATES FEW OR NO CLOUDS BELOW 12,000 FEET
WITH NO SIGNIFICANT WEATHER AND/OR OBSTRUCTIONS TO VISIBILITY.

THE REMARK "TC" DENOTES TEMPERATURE IN DEGREES CELSIUS.

ALZ001>011-014-016>018-020-042200-
NORTH ALABAMA

CITY           SKY/WX    TMP DP  RH WIND       PRES   REMARKS
MUSCLE SHOALS  FAIR      92  65  40 E6        29.99F HX  94
HUNTSVILLE     FAIR      92  67  43 CALM      29.98F HX  95
DECATUR        FAIR      92  67  43 CALM      29.99F HX  95
HALEYVILLE     FAIR      86  76  71 CALM      30.04F HX  96
GADSDEN        FAIR      91  66  43 N12       29.96F HX  94
$$

ALZ012-013-022-023-030>036-040>044-042200-
WEST CENTRAL ALABAMA

CITY           SKY/WX    TMP DP  RH WIND       PRES   REMARKS
TUSCALOOSA     FAIR      95  68  41 VRB6      29.95F HX  99
$$

ALZ015-024>027-033>036-040>044-042200-
CENTRAL ALABAMA

CITY           SKY/WX    TMP DP  RH WIND       PRES   REMARKS
BIRMINGHAM     FAIR      91  70  49 SE3       29.99F HX  96
MONTGOMERY     LGT RAIN  86  75  69 N6        29.95F HX  95
SHELBY CO ARPT FAIR      92  68  45 VRB5      29.97F HX  96
MAXWELL AFB    FAIR      85  72  64 N5        29.95F HX  92
GREENVILLE     FAIR      94  68  42 N7        29.94F HX  98
$$

ALZ019-021-028-029-037-038-045>048-042200-
EAST CENTRAL ALABAMA

CITY           SKY/WX    TMP DP  RH WIND       PRES   REMARKS
ANNISTON       FAIR      93  65  39 VRB6      29.97F HX  95
ALEXANDER CITY FAIR      94  71  45 CALM      29.97F HX 101
AUBURN         FAIR      91  68  46 NE5       29.98S THUNDER HX  95
$$

ALZ051>064-042200-
SOUTHWEST ALABAMA

CITY           SKY/WX    TMP DP  RH WIND       PRES   REMARKS
MOBILE         FAIR      81  71  71 SW10      29.97F
BROOKLEY FIELD FAIR      89  75  63 SE13      29.96F HX  99
EVERGREEN      TSTM      81  68  64 NE5G23    29.97S VSB 1
$$

ALZ049-050-065>069-042200-
SOUTHEAST ALABAMA

CITY           SKY/WX    TMP DP  RH WIND       PRES   REMARKS
DOTHAN         PTSUNNY   85  71  63 SW6       29.98S HX  90
OZARK          PTSUNNY   86  75  70 SE5       29.93F HX  95
TROY           CLOUDY    92  67  43 CALM      29.95F HX  95
EUFAULA        FAIR      93  72  50 VRB3      29.93F HX 101
$$



USA.gov is the U.S. government's official web portal to all federal, state and local government web resources and services.